TimePST,TemperatureF,Dew PointF,Humidity,Sea Level PressureIn,VisibilityMPH,Wind Direction,Wind SpeedMPH,Gust SpeedMPH,PrecipitationIn,Events,Conditions,WindDirDegrees,DateUTC
12:53 AM,48.9,33.1,54,30.34,10.0,West,4.6,-,N/A,,Clear,260,2014-01-13 08:53:00
1:53 AM,48.9,33.1,54,30.35,10.0,WNW,5.8,-,N/A,,Clear,300,2014-01-13 09:53:00
2:53 AM,48.9,33.1,54,30.37,10.0,SW,5.8,-,N/A,,Clear,220,2014-01-13 10:53:00
3:53 AM,48.9,33.1,54,30.37,10.0,SSW,5.8,-,N/A,,Clear,210,2014-01-13 11:53:00
4:53 AM,46.9,33.1,59,30.37,10.0,South,6.9,-,N/A,,Clear,180,2014-01-13 12:53:00
5:53 AM,45.0,33.1,63,30.38,10.0,South,3.5,-,N/A,,Clear,180,2014-01-13 13:53:00
6:53 AM,45.0,33.1,63,30.39,10.0,East,5.8,-,N/A,,Clear,90,2014-01-13 14:53:00
7:53 AM,45.0,34.0,65,30.42,10.0,Calm,Calm,-,N/A,,Clear,0,2014-01-13 15:53:00
8:53 AM,48.9,35.1,59,30.44,10.0,Variable,3.5,-,N/A,,Clear,0,2014-01-13 16:53:00
9:53 AM,54.0,35.1,49,30.45,10.0,Calm,Calm,-,N/A,,Clear,0,2014-01-13 17:53:00
10:53 AM,57.9,35.1,42,30.46,10.0,NW,4.6,-,N/A,,Clear,320,2014-01-13 18:53:00
11:53 AM,61.0,33.1,35,30.43,10.0,North,4.6,-,N/A,,Clear,350,2014-01-13 19:53:00
12:53 PM,63.0,32.0,31,30.40,10.0,Calm,Calm,-,N/A,,Partly Cloudy,0,2014-01-13 20:53:00
1:53 PM,64.9,32.0,29,30.38,10.0,Calm,Calm,-,N/A,,Partly Cloudy,0,2014-01-13 21:53:00
2:53 PM,66.9,30.9,26,30.37,10.0,Calm,Calm,-,N/A,,Clear,0,2014-01-13 22:53:00
3:53 PM,66.9,30.9,26,30.37,10.0,Calm,Calm,-,N/A,,Partly Cloudy,0,2014-01-13 23:53:00
4:53 PM,64.0,33.1,31,30.37,10.0,West,8.1,-,N/A,,Partly Cloudy,280,2014-01-14 00:53:00
5:53 PM,59.0,34.0,39,30.38,10.0,WSW,4.6,-,N/A,,Partly Cloudy,250,2014-01-14 01:53:00
6:53 PM,55.0,34.0,45,30.39,10.0,West,3.5,-,N/A,,Clear,260,2014-01-14 02:53:00
7:53 PM,55.0,34.0,45,30.39,10.0,Calm,Calm,-,N/A,,Clear,0,2014-01-14 03:53:00
8:53 PM,52.0,33.1,49,30.39,10.0,ESE,3.5,-,N/A,,Clear,120,2014-01-14 04:53:00
9:53 PM,48.9,34.0,56,30.40,10.0,Calm,Calm,-,N/A,,Clear,0,2014-01-14 05:53:00
10:53 PM,48.0,34.0,58,30.40,10.0,Calm,Calm,-,N/A,,Clear,0,2014-01-14 06:53:00
11:53 PM,45.0,33.1,63,30.39,10.0,East,3.5,-,N/A,,Clear,100,2014-01-14 07:53:00